CST,Max TemperatureF,Mean TemperatureF,Min TemperatureF,Max Dew PointF,MeanDew PointF,Min DewpointF,Max Humidity, Mean Humidity, Min Humidity, Max Sea Level PressureIn, Mean Sea Level PressureIn, Min Sea Level PressureIn, Max VisibilityMiles, Mean VisibilityMiles, Min VisibilityMiles, Max Wind SpeedMPH, Mean Wind SpeedMPH, Max Gust SpeedMPH,PrecipitationIn, CloudCover, Events, WindDirDegrees
2012-12-1,65,50,34,35,31,26,85,53,29,29.92,29.83,29.78,10,10,10,21,8,28,0.00,0,,268
2012-12-2,66,49,32,32,29,26,85,50,23,29.95,29.81,29.59,10,10,10,28,10,39,0.00,0,,202
2012-12-3,55,43,29,37,24,14,71,49,20,30.13,29.87,29.57,10,10,10,26,11,38,0.00,0,,294
2012-12-4,54,38,23,23,18,14,79,50,20,30.30,30.20,30.14,10,10,10,12,6,16,0.00,0,,235
2012-12-5,64,48,31,32,20,16,56,36,16,30.13,29.90,29.75,10,10,10,20,8,26,0.00,1,,208
2012-12-6,55,42,29,38,23,13,73,50,31,30.05,29.96,29.80,10,10,10,23,9,33,0.00,6,,352
2012-12-7,41,30,17,24,21,15,92,70,48,29.97,29.89,29.82,10,10,10,23,6,30,0.00,3,,258
2012-12-8,45,30,16,29,22,14,90,69,37,29.96,29.78,29.64,10,10,4,26,8,33,0.00,5,Snow,214
2012-12-9,31,16,0,24,4,-5,81,71,60,30.23,30.09,29.85,10,10,7,34,21,47,0.00,3,Snow,318
2012-12-10,37,18,-1,20,7,-8,84,65,35,30.12,29.89,29.78,10,10,10,17,5,26,0.00,2,,288
2012-12-11,42,28,15,18,12,8,89,56,25,29.93,29.86,29.76,10,10,10,15,8,20,0.00,0,,246
2012-12-12,56,40,23,14,12,9,61,38,15,29.84,29.76,29.71,10,10,10,18,10,24,0.01,0,,211
2012-12-13,47,36,24,23,18,12,67,50,31,30.03,29.95,29.84,10,10,10,12,5,9,0.00,0,,243
2012-12-14,48,32,17,32,23,14,95,68,32,29.95,29.72,29.50,10,9,3,10,3,,0.07,3,Rain,179
2012-12-15,41,34,26,34,26,19,93,74,53,29.75,29.63,29.48,10,10,7,20,7,25,0.08,4,Rain,321
2012-12-16,43,34,25,28,22,16,86,65,35,29.75,29.70,29.64,10,10,10,14,5,20,0.00,4,,238
2012-12-17,46,30,15,25,20,13,89,66,35,29.71,29.58,29.39,10,10,10,17,9,25,0.00,0,,238
2012-12-18,46,38,30,27,18,10,67,44,25,29.79,29.66,29.43,10,10,10,24,13,34,0.00,2,,300
2012-12-19,32,24,17,25,19,11,91,74,54,30.04,29.88,29.78,10,7,0,21,8,26,0.00,7,Snow,14
2012-12-20,31,19,7,15,8,0,86,68,46,30.17,30.11,30.03,10,10,10,13,8,16,0.00,0,,283
2012-12-21,46,27,8,25,14,5,85,63,37,30.17,30.10,29.99,10,10,10,10,4,,0.00,0,,250
2012-12-22,44,29,13,21,16,10,90,67,35,30.02,29.98,29.94,10,10,10,16,5,20,0.00,0,,321
2012-12-23,38,23,8,26,12,5,94,81,54,30.00,29.93,29.84,10,7,0,13,2,17,0.00,2,Fog-Snow,302
2012-12-24,15,11,7,10,7,4,87,80,71,30.18,30.04,29.98,10,9,2,13,5,,0.00,5,Snow,37
2012-12-25,13,8,3,5,2,-1,85,77,65,30.39,30.29,30.19,10,8,2,12,6,,0.00,7,Snow,360
2012-12-26,15,8,1,9,4,-3,86,80,71,30.19,30.02,29.91,10,9,4,13,5,16,0.00,2,Snow,168
2012-12-27,17,10,4,10,8,1,85,80,70,29.93,29.86,29.81,10,7,0,13,6,,0.00,7,Snow,81
2012-12-28,19,12,5,10,5,1,86,80,65,30.04,29.98,29.93,10,8,2,13,6,,0.00,5,Snow,306
2012-12-29,33,20,8,18,12,5,86,71,49,30.15,30.10,30.04,10,10,10,15,8,17,0.00,0,,269
2012-12-30,30,20,10,21,14,7,87,72,53,30.10,29.98,29.90,10,10,10,20,7,26,0.00,1,,302
2012-12-31,25,22,20,21,19,18,93,90,84,30.12,30.09,30.07,10,10,4,10,5,,0.00,8,,16